Regional Weather Roundup
Issued by NWS State College, PA

Home | Current Version | Previous Version | Text Only | Print | Product List | Glossary Off
Versions: 1 2 3 4 5 6 7 8 9 10 11 12 13 14 15 16 17 18 19 20 21 22 23 24 25 26 27 28 29 30 31 32 33 34 35 36 37 38 39 40 41 42 43 44 45 46 47 48 49 50

000
ASUS41 KCTP 290103
RWRCTP

REGIONAL WEATHER ROUNDUP
NATIONAL WEATHER SERVICE STATE COLLEGE PA
900 PM EDT FRI AUG 28 2015

Note: "fair" indicates few or no clouds below 12,000 feet with no
significant weather and/or obstructions to visibility.

* = STATION THAT DOES NOT REPORT PRECIPITATION /E.G. RAIN...SNOW...ETC/
    THUNDER OR FOG.

PAZ002>004-007>009-013>016-020>023-029>032-290200-
WESTERN PENNSYLVANIA

CITY           SKY/WX    TMP DP  RH WIND       PRES   REMARKS
ERIE           MOCLDY    65  57  75 CALM      30.18R
MEADVILLE      PTCLDY    63  56  78 NE6       30.19R
FRANKLIN*      PTCLDY    63  55  77 E3        30.21R
NEW CASTLE     FAIR      66  57  72 CALM      30.18R
BEAVER COUNTY  CLEAR     70  54  56 CALM      30.17S
BUTLER*        PTCLDY    64  54  68 CALM      30.19R
PITTSBURGH INT MOCLDY    69  55  60 CALM      30.17R
PITTSBURGH     CLEAR     74  44  34 CALM      30.16R
INDIANA*       MOCLDY    63  57  82 CALM      30.22R
LATROBE        CLEAR     66  55  68 CALM      30.18R
WASHINGTON CO* PTCLDY    61  55  82 CALM      30.18R
$$

PAZ004>006-010>012-017>019-024>028-033>037-041-042-045-046-049>053-290200-
CENTRAL PENNSYLVANIA

CITY           SKY/WX    TMP DP  RH WIND       PRES   REMARKS
BRADFORD       CLOUDY    61  55  81 CALM      30.22R
DUBOIS         CLEAR     66  53  63 CALM      30.20R
CLEARFIELD     CLEAR     61  55  81 N6        30.21R
JOHNSTOWN      CLEAR     66  51  58 CALM      30.22R
ALTOONA        CLEAR     60  54  80 CALM      30.21R
STATE COLLEGE  PTCLDY    64  57  77 CALM      30.19R
WILLIAMSPORT   CLEAR     64  58  80 CALM      30.16R
SELINSGROVE    CLEAR     61  59  93 CALM      30.18R
FT INDIANTOWN  CLEAR     63  58  86 N2        30.18R
CAPITAL CITY   CLEAR     67  59  75 CALM      30.18R
HARRISBURG     PTCLDY    71  62  73 CALM      30.17R
YORK           CLEAR     62  59  90 CALM      30.19R
$$

PAZ038>040-043-044-047-048-054-055-060>062-067>071-290200-
EASTERN PENNSYLVANIA

CITY           SKY/WX    TMP DP  RH WIND       PRES   REMARKS
SCRANTON       PTCLDY    66  55  67 E6        30.20R
MOUNT POCONO   CLEAR     56  52  86 CALM      30.24R
ALLENTOWN      CLEAR     68  55  63 N3        30.18R
QUAKERTOWN*    CLEAR     66  57  72 CALM      30.20R
READING        CLEAR     69  58  67 CALM      30.18R
LANCASTER      CLEAR     69  55  60 CALM      30.18R
COATESVILLE    CLEAR     68  59  73 CALM      30.20R
POTTSTOWN      CLEAR     66  59  78 CALM      30.20R
BLUE BELL      CLEAR     63  61  94 CALM      30.18R
DOYLESTOWN     CLEAR     65  58  78 CALM      30.18R
WILLOW GROVE   NOT AVBL
NORTH PHILA    CLEAR     72  53  51 CALM      30.19R
PHILADELPHIA   NOT AVBL
$$



USA.gov is the U.S. government's official web portal to all federal, state and local government web resources and services.